| time (UTC) | temp F | wind direction | speed MPH | gust MPH | rain 1hr in | rain 24hr in | rain mn in | humidity % | barometer mb |
| 20260503223011 | 62 | 274 | 0.0 | 2.0 | 0.00 | 0.00 | 0.00 | 31 | 1015.5 |
| 20260503221508 | 63 | 219 | 0.0 | 4.0 | 0.00 | 0.00 | 0.00 | 30 | 1015.6 |
| 20260503220005 | 65 | 152 | 0.0 | 1.0 | 0.00 | 0.00 | 0.00 | 28 | 1015.6 |
| 20260503214518 | 66 | 333 | 0.0 | 2.0 | 0.00 | 0.00 | 0.00 | 28 | 1015.6 |
| 20260503213005 | 67 | 331 | 0.0 | 3.0 | 0.00 | 0.00 | 0.00 | 25 | 1015.5 |
| 20260503211506 | 68 | 331 | 0.0 | 3.0 | 0.00 | 0.00 | 0.00 | 25 | 1015.7 |
| 20260503210013 | 68 | 314 | 0.0 | 5.0 | 0.00 | 0.00 | 0.00 | 25 | 1015.6 |
| 20260503204509 | 69 | 163 | 1.0 | 3.0 | 0.00 | 0.00 | 0.00 | 27 | 1015.8 |
| 20260503203003 | 69 | 346 | 0.0 | 6.0 | 0.00 | 0.00 | 0.00 | 25 | 1015.7 |
| 20260503201503 | 70 | 319 | 0.0 | 2.0 | 0.00 | 0.00 | 0.00 | 24 | 1015.8 |
| 20260503200001 | 70 | 338 | 0.0 | 4.0 | 0.00 | 0.00 | 0.00 | 25 | 1016.0 |
| 20260503194626 | 69 | 278 | 1.0 | 4.0 | 0.00 | 0.00 | 0.00 | 25 | 1016.4 |
| 20260503194501 | 69 | 267 | 1.0 | 4.0 | 0.00 | 0.00 | 0.00 | 24 | 1016.3 |
| 20260503193100 | 69 | 342 | 0.0 | 4.0 | 0.00 | 0.00 | 0.00 | 26 | 1016.6 |
| 20260503191604 | 69 | 355 | 0.0 | 5.0 | 0.00 | 0.00 | 0.00 | 24 | 1016.7 |
| 20260503184600 | 67 | 184 | 0.0 | 7.0 | 0.00 | 0.00 | 0.00 | 27 | 1017.1 |
| 20260503183106 | 68 | 223 | 0.0 | 3.0 | 0.00 | 0.00 | 0.00 | 25 | 1017.3 |
| 20260503181556 | 68 | 250 | 0.0 | 5.0 | 0.00 | 0.00 | 0.00 | 27 | 1017.5 |
| 20260503180105 | 67 | 311 | 1.0 | 3.0 | 0.00 | 0.00 | 0.00 | 27 | 1017.5 |
| 20260503174551 | 67 | 307 | 1.0 | 5.0 | 0.00 | 0.00 | 0.00 | 27 | 1017.7 |
| 20260503173137 | 65 | 21 | 0.0 | 7.0 | 0.00 | 0.00 | 0.00 | 29 | 1017.6 |
| 20260503171548 | 64 | 256 | 1.0 | 8.0 | 0.00 | 0.00 | 0.00 | 30 | 1017.9 |
| 20260503100113 | 41 | 46 | 0.0 | 0.0 | 0.00 | 0.00 | 0.00 | 73 | 1016.7 |
| 20260503081552 | 46 | 46 | 0.0 | 0.0 | 0.00 | 0.00 | 0.00 | 63 | 1015.7 |
| 20260503071541 | 48 | 46 | 0.0 | 2.0 | 0.00 | 0.00 | 0.00 | 59 | 1015.1 |
| 20260503054533 | 50 | 348 | 2.0 | 7.0 | 0.00 | 0.00 | 0.00 | 58 | 1014.5 |
| 20260503051520 | 50 | 45 | 0.0 | 0.0 | 0.00 | 0.00 | 0.00 | 59 | 1014.4 |
| 20260503050019 | 50 | 45 | 0.0 | 2.0 | 0.00 | 0.00 | 0.00 | 59 | 1014.3 |
| 20260503044534 | 51 | 113 | 0.0 | 0.0 | 0.00 | 0.00 | 0.00 | 59 | 1014.3 |
| 20260503041518 | 51 | 113 | 0.0 | 0.0 | 0.00 | 0.00 | 0.00 | 59 | 1014.3 |
| 20260503040017 | 51 | 113 | 0.0 | 0.0 | 0.00 | 0.00 | 0.00 | 60 | 1014.2 |
| 20260503034518 | 51 | 113 | 0.0 | 0.0 | 0.00 | 0.00 | 0.00 | 62 | 1014.2 |
| 20260503031515 | 51 | 113 | 0.0 | 0.0 | 0.00 | 0.00 | 0.00 | 65 | 1014.1 |
| 20260503030017 | 51 | 113 | 0.0 | 0.0 | 0.00 | 0.00 | 0.00 | 65 | 1014.0 |
| 20260503024513 | 51 | 113 | 0.0 | 0.0 | 0.00 | 0.00 | 0.00 | 70 | 1014.1 |
| 20260503021511 | 51 | 113 | 0.0 | 0.0 | 0.00 | 0.00 | 0.00 | 68 | 1014.0 |
| 20260503020009 | 52 | 113 | 0.0 | 0.0 | 0.00 | 0.00 | 0.00 | 69 | 1014.0 |
| 20260503014506 | 52 | 113 | 0.0 | 0.0 | 0.00 | 0.00 | 0.00 | 67 | 1013.8 |
| 20260503011501 | 53 | 113 | 0.0 | 0.0 | 0.00 | 0.00 | 0.00 | 65 | 1013.5 |
| 20260503010104 | 54 | 113 | 0.0 | 0.0 | 0.00 | 0.00 | 0.00 | 63 | 1013.4 |
| 20260503004555 | 54 | 113 | 0.0 | 0.0 | 0.00 | 0.00 | 0.00 | 59 | 1013.2 |
| 20260503001552 | 55 | 113 | 0.0 | 0.0 | 0.00 | 0.00 | 0.00 | 54 | 1012.9 |
| 20260503000100 | 56 | 113 | 0.0 | 0.0 | 0.00 | 0.00 | 0.00 | 57 | 1012.7 |
| 20260502234545 | 57 | 113 | 0.0 | 0.0 | 0.00 | 0.00 | 0.00 | 53 | 1012.3 |
| 20260502231544 | 59 | 113 | 0.0 | 0.0 | 0.00 | 0.00 | 0.00 | 50 | 1012.0 |
| 20260502230036 | 59 | 113 | 0.0 | 0.0 | 0.00 | 0.00 | 0.00 | 49 | 1011.8 |
| 20260502224534 | 59 | 113 | 0.0 | 0.0 | 0.00 | 0.00 | 0.00 | 47 | 1011.7 |